This is the latest recevied weather packets stored in our database for station/object KD4EED. If no packets are shown the sender has not sent any weather packets the latest 10 day(s).
| Time | Temp. | Humidity | Pressure | Rain* | Wind** | Luminosity | Snow |
|---|---|---|---|---|---|---|---|
| 1777840971 | 20° C | 54% | 1011.4 hPa | - | - | 328 W/m² | - |
| 1777840668 | 20° C | 53% | 1011.5 hPa | - | - | 358 W/m² | - |
| 1777840366 | 20° C | 52% | 1011.5 hPa | - | - | 323 W/m² | - |
| 1777840062 | 20° C | 53% | 1011.5 hPa | - | - | 442 W/m² | - |
| 1777839760 | 20° C | 55% | 1011.5 hPa | - | - | 428 W/m² | - |
| 1777839458 | 20° C | 54% | 1011.4 hPa | - | - | 365 W/m² | - |
| 1777839155 | 20° C | 54% | 1011.5 hPa | - | - | 359 W/m² | - |
| 1777838852 | 20° C | 52% | 1011.7 hPa | - | - | 376 W/m² | - |
| 1777838548 | 20° C | 52% | 1011.6 hPa | - | - | 309 W/m² | - |
| 1777838245 | 20° C | 53% | 1011.7 hPa | - | - | 585 W/m² | - |
| 1777837942 | 20° C | 53% | 1011.6 hPa | - | - | 285 W/m² | - |
| 1777837639 | 20° C | 54% | 1011.7 hPa | - | - | 222 W/m² | - |
| 1777837335 | 20.56° C | 53% | 1011.6 hPa | - | - | 247 W/m² | - |
| 1777837031 | 20° C | 55% | 1011.9 hPa | - | - | 528 W/m² | - |
| 1777836728 | 20° C | 54% | 1011.9 hPa | - | - | 323 W/m² | - |
| 1777836423 | 20° C | 53% | 1011.8 hPa | - | - | 363 W/m² | - |
| 1777836119 | 20.56° C | 53% | 1011.7 hPa | - | - | 288 W/m² | - |
| 1777835815 | 20.56° C | 55% | 1011.9 hPa | - | - | 328 W/m² | - |
| 1777835513 | 20.56° C | 55% | 1011.9 hPa | - | - | 324 W/m² | - |
| 1777835209 | 20.56° C | 54% | 1011.9 hPa | - | - | 463 W/m² | - |
| 1777834906 | 20.56° C | 54% | 1011.8 hPa | - | - | 355 W/m² | - |
| 1777834603 | 20.56° C | 54% | 1011.8 hPa | - | - | 315 W/m² | - |
| 1777834298 | 21.11° C | 52% | 1012.1 hPa | - | - | 292 W/m² | - |
| 1777833994 | 20.56° C | 54% | 1012.1 hPa | - | - | 399 W/m² | - |
| 1777833690 | 20.56° C | 54% | 1011.9 hPa | - | - | 357 W/m² | - |
* Rain since midnight (hover to see other rain measurements)
** Current wind speed in m/s (hover to see current wind gust speed)